W4EDL-13 Weather Reports


time (UTC)temp
F
wind
direction
speed
knots
gust
knots
rain 1hr
in
rain 24hr
in
rain mn
in
humidity
%
barometer
mb
20260507220221 100 304 2.6 0.0 0.00 0.00 0.00 29 1002.9
20260507214219 100 271 2.6 0.0 0.00 0.00 0.00 28 1002.9
20260507213219 101 237 0.9 0.0 0.00 0.00 0.00 29 1002.9
20260507212218 103 53 0.9 0.0 0.00 0.00 0.00 29 1002.9
20260507211218 101 283 4.3 0.0 0.00 0.00 0.00 30 1002.9
20260507210217 100 307 2.6 0.0 0.00 0.00 0.00 29 1002.9
20260507205216 100 255 3.5 0.0 0.00 0.00 0.00 29 1002.9
20260507204216 101 294 2.6 0.0 0.00 0.00 0.00 32 1002.9
20260507203215 99 285 4.3 0.0 0.00 0.00 0.00 33 1003.2
20260507202215 99 264 5.2 0.0 0.00 0.00 0.00 33 1003.2
20260507201214 100 28 2.6 0.0 0.00 0.00 0.00 34 1003.6
20260507200214 100 341 2.6 0.0 0.00 0.00 0.00 33 1003.6
20260507195213 98 209 2.6 0.0 0.00 0.00 0.00 34 1003.6
20260507194212 100 254 4.3 0.0 0.00 0.00 0.00 32 1003.6
20260507193212 100 135 2.6 0.0 0.00 0.00 0.00 32 1003.9
20260507192211 100 222 2.6 0.0 0.00 0.00 0.00 33 1003.9
20260507191211 96 212 5.2 0.0 0.00 0.00 0.00 36 1004.6
20260507190210 98 239 4.3 0.0 0.00 0.00 0.00 34 1004.6
20260507185210 99 209 1.7 0.0 0.00 0.00 0.00 36 1004.6
20260507184209 98 32 2.6 0.0 0.00 0.00 0.00 36 1004.9
20260507183208 99 183 1.7 0.0 0.00 0.00 0.00 34 1005.3
20260507182208 99 81 2.6 0.0 0.00 0.00 0.00 35 1005.6
20260507181207 99 120 4.3 0.0 0.00 0.00 0.00 36 1005.3
20260507180207 100 253 1.7 0.0 0.00 0.00 0.00 38 1005.3
20260507175206 99 28 1.7 0.0 0.00 0.00 0.00 39 1005.6
20260507174206 97 63 1.7 0.0 0.00 0.00 0.00 42 1005.6
20260507173205 97 165 2.6 0.0 0.00 0.00 0.00 40 1005.6
20260507172206 98 271 2.6 0.0 0.00 0.00 0.00 39 1005.6
20260507171205 97 352 1.7 0.0 0.00 0.00 0.00 41 1005.6
20260507170205 95 280 5.2 0.0 0.00 0.00 0.00 42 1005.6
20260507170203 95 280 5.2 0.0 0.00 0.00 0.00 42 1005.6
20260507165204 96 241 3.5 0.0 0.00 0.00 0.00 42 1005.6
20260507164204 95 215 1.7 0.0 0.00 0.00 0.00 45 1005.6
20260507164202 95 215 1.7 0.0 0.00 0.00 0.00 45 1005.6
20260507163203 95 271 1.7 0.0 0.00 0.00 0.00 42 1005.9
20260507163201 95 271 1.7 0.0 0.00 0.00 0.00 42 1005.9
20260507162203 94 193 2.6 0.0 0.00 0.00 0.00 45 1005.9
20260507162201 94 193 2.6 0.0 0.00 0.00 0.00 45 1005.9
20260507161202 92 0 1.7 0.0 0.00 0.00 0.00 47 1006.3
20260507161200 92 0 1.7 0.0 0.00 0.00 0.00 47 1006.3
20260507160202 94 219 1.7 0.0 0.00 0.00 0.00 47 1006.3
20260507160200 94 219 1.7 0.0 0.00 0.00 0.00 47 1006.3
20260507155201 92 305 4.3 0.0 0.00 0.00 0.00 48 1006.3
20260507155159 92 305 4.3 0.0 0.00 0.00 0.00 48 1006.3
20260507154201 92 181 3.5 0.0 0.00 0.00 0.00 48 1006.3
20260507154158 92 181 3.5 0.0 0.00 0.00 0.00 48 1006.3
20260507153200 94 32 1.7 0.0 0.00 0.00 0.00 48 1006.6
20260507153157 94 32 1.7 0.0 0.00 0.00 0.00 48 1006.6
20260507152200 90 280 3.5 0.0 0.00 0.00 0.00 51 1006.6
20260507152157 90 280 3.5 0.0 0.00 0.00 0.00 51 1006.6
20260507151159 90 254 2.6 0.0 0.00 0.00 0.00 50 1006.6
20260507151156 90 254 2.6 0.0 0.00 0.00 0.00 50 1006.6
20260507150159 91 213 2.6 0.0 0.00 0.00 0.00 52 1006.6
20260507150155 91 213 2.6 0.0 0.00 0.00 0.00 52 1006.6
20260507145158 88 214 2.6 0.0 0.00 0.00 0.00 58 1007.3
20260507145154 88 214 2.6 0.0 0.00 0.00 0.00 58 1007.3
20260507144157 89 29 2.6 0.0 0.00 0.00 0.00 58 1006.6
20260507144154 89 29 2.6 0.0 0.00 0.00 0.00 58 1006.6
20260507143157 85 176 4.3 0.0 0.00 0.00 0.00 60 1007.3
20260507143153 85 176 4.3 0.0 0.00 0.00 0.00 60 1007.3
20260507142156 86 245 2.6 0.0 0.00 0.00 0.00 61 1006.6
20260507142152 86 245 2.6 0.0 0.00 0.00 0.00 61 1006.6
20260507141156 85 272 3.5 0.0 0.00 0.00 0.00 62 1007.3
20260507141151 85 272 3.5 0.0 0.00 0.00 0.00 62 1007.3
20260507140155 85 65 1.7 0.0 0.00 0.00 0.00 63 1007.3
20260507140151 85 65 1.7 0.0 0.00 0.00 0.00 63 1007.3
20260507135155 82 212 6.1 0.0 0.00 0.00 0.00 65 1007.3
20260507135150 82 212 6.1 0.0 0.00 0.00 0.00 65 1007.3
20260507134154 83 125 2.6 0.0 0.00 0.00 0.00 64 1007.3
20260507134150 83 125 2.6 0.0 0.00 0.00 0.00 64 1007.3
20260507133154 82 292 2.6 0.0 0.00 0.00 0.00 64 1007.3
20260507133149 82 292 2.6 0.0 0.00 0.00 0.00 64 1007.3
20260507132153 82 146 2.6 0.0 0.00 0.00 0.00 64 1007.3
20260507132148 82 146 2.6 0.0 0.00 0.00 0.00 64 1007.3
20260507131153 81 201 1.7 0.0 0.00 0.00 0.00 69 1007.3
20260507131148 81 201 1.7 0.0 0.00 0.00 0.00 69 1007.3
20260507130152 80 212 0.9 0.0 0.00 0.00 0.00 73 1007.3
20260507130147 80 212 0.9 0.0 0.00 0.00 0.00 73 1007.3
20260507125152 78 306 4.3 0.0 0.00 0.00 0.00 76 1007.3
20260507125147 78 306 4.3 0.0 0.00 0.00 0.00 76 1007.3
20260507124151 76 97 3.5 0.0 0.00 0.00 0.00 81 1006.6
20260507124146 76 97 3.5 0.0 0.00 0.00 0.00 81 1006.6
20260507123151 74 165 3.5 0.0 0.00 0.00 0.00 83 1007.3
20260507123145 74 165 3.5 0.0 0.00 0.00 0.00 83 1007.3
20260507122150 73 198 2.6 0.0 0.00 0.00 0.00 86 1006.6
20260507122145 73 198 2.6 0.0 0.00 0.00 0.00 86 1006.6
20260507121150 72 19 1.7 0.0 0.00 0.00 0.00 87 1007.3
20260507121144 72 19 1.7 0.0 0.00 0.00 0.00 87 1007.3
20260507120149 71 214 1.7 0.0 0.00 0.00 0.00 88 1007.3
20260507120143 71 214 1.7 0.0 0.00 0.00 0.00 88 1007.3
20260507115149 71 230 0.9 0.0 0.00 0.00 0.00 89 1007.3
20260507115143 71 230 0.9 0.0 0.00 0.00 0.00 89 1007.3
20260507114148 70 27 0.0 0.0 0.00 0.00 0.00 89 1006.6
20260507114142 70 34 0.9 0.0 0.00 0.00 0.00 89 1006.6
20260507113148 70 37 0.0 0.0 0.00 0.00 0.00 90 1006.6
20260507113142 70 37 0.0 0.0 0.00 0.00 0.00 90 1006.6
20260507112141 69 45 0.0 0.0 0.00 0.00 0.00 91 1006.3
20260507111147 69 303 1.7 0.0 0.00 0.00 0.00 92 1006.3
20260507111141 69 303 1.7 0.0 0.00 0.00 0.00 92 1006.3
20260507110146 68 53 0.9 0.0 0.00 0.00 0.00 93 1006.3
20260507110140 68 53 0.9 0.0 0.00 0.00 0.00 93 1006.3
20260507105145 67 29 0.0 0.0 0.00 0.00 0.00 94 1006.3
20260507105140 67 29 0.0 0.0 0.00 0.00 0.00 94 1006.3
20260507104145 67 28 0.0 0.0 0.00 0.00 0.00 94 1006.3
20260507104139 67 26 0.0 0.0 0.00 0.00 0.00 94 1006.3
20260507103145 67 35 0.0 0.0 0.00 0.00 0.00 94 1006.3
20260507103138 67 35 0.0 0.0 0.00 0.00 0.00 94 1006.3
20260507102144 67 34 0.0 0.0 0.00 0.00 0.00 94 1006.3
20260507102138 67 34 0.0 0.0 0.00 0.00 0.00 94 1006.3
20260507101143 67 31 0.0 0.0 0.00 0.00 0.00 94 1005.9
20260507101139 67 31 0.0 0.0 0.00 0.00 0.00 94 1005.9
20260507100143 67 21 0.0 0.0 0.00 0.00 0.00 93 1005.9
20260507100137 67 21 0.0 0.0 0.00 0.00 0.00 93 1005.9
20260507095142 68 8 0.9 0.0 0.00 0.00 0.00 93 1005.6
20260507095136 68 8 0.9 0.0 0.00 0.00 0.00 93 1005.6
20260507094142 68 23 0.0 0.0 0.00 0.00 0.00 92 1005.6
20260507094135 68 23 0.0 0.0 0.00 0.00 0.00 92 1005.6
20260507093141 68 129 1.7 0.0 0.00 0.00 0.00 92 1005.6
20260507093135 68 129 1.7 0.0 0.00 0.00 0.00 92 1005.6
20260507092141 68 33 0.0 0.0 0.00 0.00 0.00 91 1005.6
20260507092134 68 33 0.0 0.0 0.00 0.00 0.00 91 1005.6
20260507091140 68 358 0.9 0.0 0.00 0.00 0.00 92 1005.6
20260507091134 68 358 0.9 0.0 0.00 0.00 0.00 92 1005.6
20260507090139 68 42 0.9 0.0 0.00 0.00 0.00 91 1005.6
20260507090133 68 42 0.9 0.0 0.00 0.00 0.00 91 1005.6
20260507085139 67 64 0.9 0.0 0.00 0.00 0.00 93 1005.6
20260507085133 67 33 0.0 0.0 0.00 0.00 0.00 93 1005.6
20260507084138 67 304 0.9 0.0 0.00 0.00 0.00 94 1005.6
20260507084132 67 304 0.9 0.0 0.00 0.00 0.00 94 1005.6
20260507083138 66 38 0.0 0.0 0.00 0.00 0.00 96 1005.6
20260507083131 66 38 0.0 0.0 0.00 0.00 0.00 96 1005.6
20260507082137 66 33 0.0 0.0 0.00 0.00 0.00 96 1005.6
20260507082131 66 33 0.0 0.0 0.00 0.00 0.00 96 1005.6
20260507081137 66 43 0.0 0.0 0.00 0.00 0.00 95 1005.6
20260507081130 66 43 0.0 0.0 0.00 0.00 0.00 95 1005.6
20260507080136 66 43 0.0 0.0 0.00 0.00 0.00 94 1005.6
20260507080130 66 43 0.0 0.0 0.00 0.00 0.00 94 1005.6
20260507075136 66 42 0.0 0.0 0.00 0.00 0.00 94 1005.6
20260507075129 66 42 0.0 0.0 0.00 0.00 0.00 95 1005.6
20260507074135 67 42 0.0 0.0 0.00 0.00 0.00 95 1005.6
20260507074128 67 42 0.0 0.0 0.00 0.00 0.00 95 1005.6
20260507073135 67 31 0.0 0.0 0.00 0.00 0.00 94 1005.6
20260507073128 67 31 0.0 0.0 0.00 0.00 0.00 94 1005.6
20260507072134 67 26 0.0 0.0 0.00 0.00 0.00 94 1005.6
20260507072127 67 26 0.0 0.0 0.00 0.00 0.00 94 1005.6
20260507071134 67 40 0.0 0.0 0.00 0.00 0.00 94 1005.6
20260507071127 67 40 0.0 0.0 0.00 0.00 0.00 94 1005.6
20260507070133 67 33 0.0 0.0 0.00 0.00 0.00 93 1005.6
20260507070126 67 33 0.0 0.0 0.00 0.00 0.00 93 1005.6
20260507065125 68 47 0.0 0.0 0.00 0.00 0.00 91 1005.9
20260507064125 67 35 0.0 0.0 0.00 0.00 0.00 92 1005.9
20260507063124 68 39 0.0 0.0 0.00 0.00 0.00 90 1005.9
20260507062124 68 44 0.0 0.0 0.00 0.00 0.00 90 1006.3
20260507061123 69 58 0.0 0.0 0.00 0.00 0.00 89 1006.3
20260507060122 69 50 0.0 0.0 0.00 0.00 0.00 87 1006.3
20260507055123 70 30 0.0 0.0 0.00 0.00 0.00 86 1006.6
20260507054122 70 16 0.0 0.0 0.00 0.00 0.00 86 1006.6
20260507053121 70 30 0.0 0.0 0.00 0.00 0.00 85 1006.6
20260507052120 71 27 0.9 0.0 0.00 0.00 0.00 85 1006.6
20260507051119 71 90 0.9 0.0 0.00 0.00 0.00 85 1007.3
20260507050119 71 39 0.0 0.0 0.00 0.00 0.00 85 1007.3
20260507045118 72 88 0.9 0.0 0.00 0.00 0.00 83 1007.3
20260507044118 73 281 1.7 0.0 0.00 0.00 0.00 81 1007.3
20260507043117 75 12 0.9 0.0 0.00 0.00 0.00 80 1006.3
20260507042116 76 307 0.9 0.0 0.00 0.00 0.00 79 1006.3
20260507041116 76 81 3.5 0.0 0.00 0.00 0.00 78 1006.3
20260507040115 76 90 1.7 0.0 0.00 0.00 0.00 78 1006.3
20260507035115 76 356 0.9 0.0 0.00 0.00 0.00 78 1006.3
20260507034114 76 149 4.3 0.0 0.00 0.00 0.00 77 1006.3
20260507033114 76 69 1.7 0.0 0.00 0.00 0.00 77 1006.3
20260507032113 76 156 3.5 0.0 0.00 0.00 0.00 76 1006.6
20260507031112 76 157 4.3 0.0 0.00 0.00 0.00 76 1006.3
20260507030112 76 125 4.3 0.0 0.00 0.00 0.00 75 1006.3
20260507025111 76 111 0.9 0.0 0.00 0.00 0.00 75 1006.3
20260507024110 76 93 1.7 0.0 0.00 0.00 0.00 75 1006.3
20260507023110 77 159 2.6 0.0 0.00 0.00 0.00 74 1006.3
20260507022109 77 170 2.6 0.0 0.00 0.00 0.00 74 1006.3
20260507021108 77 91 2.6 0.0 0.00 0.00 0.00 74 1006.6
20260507020109 77 108 4.3 0.0 0.00 0.00 0.00 73 1006.6
20260507015108 77 145 2.6 0.0 0.00 0.00 0.00 72 1006.3
20260507014107 77 114 3.5 0.0 0.00 0.00 0.00 70 1006.3
20260507013107 77 149 1.7 0.0 0.00 0.00 0.00 69 1006.6
20260507012107 77 82 1.7 0.0 0.00 0.00 0.00 66 1006.6
20260507012105 77 82 1.7 0.0 0.00 0.00 0.00 66 1006.6
20260507011106 77 74 1.7 0.0 0.00 0.00 0.00 65 1006.3
20260507011104 77 74 1.7 0.0 0.00 0.00 0.00 65 1006.3
20260507010106 78 135 0.9 0.0 0.00 0.00 0.00 62 1006.3
20260507010104 78 135 0.9 0.0 0.00 0.00 0.00 62 1006.3
20260507005105 78 167 2.6 0.0 0.00 0.00 0.00 60 1006.3
20260507005101 78 167 2.6 0.0 0.00 0.00 0.00 60 1006.3
20260507004105 78 94 2.6 0.0 0.00 0.00 0.00 59 1006.3
20260507004101 78 94 2.6 0.0 0.00 0.00 0.00 59 1006.3
20260507003104 78 161 3.5 0.0 0.00 0.00 0.00 58 1006.3
20260507003100 78 161 3.5 0.0 0.00 0.00 0.00 58 1006.3
20260507002103 79 138 2.6 0.0 0.00 0.00 0.00 55 1006.3
20260507002059 79 138 2.6 0.0 0.00 0.00 0.00 55 1006.3
20260507001103 79 176 0.9 0.0 0.00 0.00 0.00 55 1006.3
20260507001059 79 176 0.9 0.0 0.00 0.00 0.00 55 1006.3
20260507000058 80 182 6.1 0.0 0.00 0.00 0.00 53 1005.9
20260506235102 80 82 3.5 0.0 0.00 0.00 0.00 51 1005.9
20260506235057 80 82 3.5 0.0 0.00 0.00 0.00 51 1005.9
20260506234101 80 97 7.0 0.0 0.00 0.00 0.00 52 1005.9
20260506234056 80 97 7.0 0.0 0.00 0.00 0.00 52 1005.9
20260506233100 81 140 4.3 0.0 0.00 0.00 0.00 51 1006.3
20260506233055 81 140 4.3 0.0 0.00 0.00 0.00 51 1006.3
20260506232100 81 198 1.7 0.0 0.00 0.00 0.00 51 1005.9
20260506232054 81 198 1.7 0.0 0.00 0.00 0.00 51 1005.9
20260506231054 82 186 5.2 0.0 0.00 0.00 0.00 50 1005.9
20260506230053 82 162 4.3 0.0 0.00 0.00 0.00 49 1005.9
20260506225053 83 56 2.6 0.0 0.00 0.00 0.00 49 1005.9
20260506224052 83 127 5.2 0.0 0.00 0.00 0.00 47 1005.9
20260506223051 85 117 2.6 0.0 0.00 0.00 0.00 45 1005.9
20260506222051 86 205 2.6 0.0 0.00 0.00 0.00 44 1006.3